Regional Weather Roundup
Issued by NWS

Home | Current Version | Previous Version | Graphics & Text | Print | Product List | Glossary On
Versions: 1 2 3 4 5 6 7 8 9 10 11 12 13 14 15 16 17 18 19 20 21 22 23 24 25 26 27 28 29 30 31 32 33 34 35 36 37 38 39 40 41 42 43 44 45 46 47 48 49 50
000
ASUS43 KOAX 022310
RWRNE

WEATHER ROUNDUP FOR NEBRASKA
NATIONAL WEATHER SERVICE OMAHA NE
600 PM CDT SUN AUG 02 2015

NOTES: SATELLITE DATA IS BEING USED TO AUGMENT CLOUD COVER ABOVE
       12000 FEET.
       "FAIR" INDICATES FEW OR NO CLOUDS BELOW 12,000 FEET WITH NO
       SIGNIFICANT WEATHER AND/OR OBSTRUCTIONS TO VISIBILITY.

  * THESE STATIONS DO NOT REPORT WEATHER SUCH AS RAIN...SNOW OR FOG.

NEZ001>004-019>022-054>056-030000-
NEBRASKA PANHANDLE

CITY           SKY/WX    TMP DP  RH WIND       PRES   REMARKS
SCOTTSBLUFF    MOSUNNY   91  51  25 E12       29.97R
ALLIANCE       MOSUNNY   89  48  24 W9        29.96F
CHADRON        SUNNY     92  56  29 NE15G22   29.93F HX  90
KIMBALL        PTSUNNY   86  48  26 NE13      30.04R
SIDNEY         CLOUDY    87  47  24 S12       30.02R
$$

NEZ057>060-069>072-079>082-030000-
SOUTHWEST NEBRASKA

CITY           SKY/WX    TMP DP  RH WIND       PRES   REMARKS
NORTH PLATTE   LGT RAIN  79  55  43 W12G17    29.94R
IMPERIAL       CLOUDY    94  54  25 E9        29.92S HX  92
LEXINGTON      CLOUDY    82  56  40 SW10      29.94R
MCCOOK         PTSUNNY   84  54  35 NE26G35   29.89R
OGALLALA       PTSUNNY   91  56  29 E7        29.93R
$$

NEZ005>010-023>029-035>040-094-030000-
NORTH CENTRAL NEBRASKA

CITY           SKY/WX    TMP DP  RH WIND       PRES   REMARKS
AINSWORTH      SUNNY     86  63  45 E8        29.93S
BROKEN BOW     CLOUDY    83  60  45 SE8       29.93R
O`NEILL        SUNNY     86  63  45 NE10      29.90S
ORD            PTSUNNY   81  72  74 W10       29.88R
THEDFORD       PTSUNNY   91  57  31 SW12      29.93S
$$

NEZ041-046>049-061>064-073>077-083>087-030000-
SOUTH CENTRAL NEBRASKA

CITY           SKY/WX    TMP DP  RH WIND       PRES   REMARKS
GRAND ISLAND   CLOUDY    85  73  67 SW6       29.86S HX  91
AURORA         CLOUDY    86  74  68 SW3       29.86R HX  93
HASTINGS       CLOUDY    87  76  69 CALM      29.86S HX  97
HEBRON         MOSUNNY   90  65  43 SW5       29.84S HX  92
HOLDREGE       CLOUDY    88  47  23 SW10      29.90R
KEARNEY *      CLOUDY    88  50  27 N12       29.91R
YORK           CLOUDY    84  79  84 CALM      29.84F HX  96
$$

NEZ011>018-030>034-042>045-030000-
NORTHEAST NEBRASKA

CITY           SKY/WX    TMP DP  RH WIND       PRES   REMARKS
NORFOLK        SUNNY     91  61  36 N10       29.84R HX  91
ALBION         MOSUNNY   88  69  53 NE10      29.86S HX  92
BLAIR          MOSUNNY   88  73  61 NW7       29.81S HX  96
COLUMBUS *     MOSUNNY   90  73  58 N7        29.81S HX  98
FREMONT        MOSUNNY   90  72  55 N5        29.82S HX  97
TEKAMAH        SUNNY     91  76  61 NW7       29.80S HX 103
WAYNE          SUNNY     86  68  54 N9        29.85S
$$

NEZ050>053-065>068-078-088>093-030000-
SOUTHEAST NEBRASKA

CITY           SKY/WX    TMP DP  RH WIND       PRES   REMARKS
LINCOLN        MOSUNNY   92  73  53 SW10      29.81F HX 100
OMAHA EPPLEY   MOSUNNY   91  76  61 N14       29.78S HX 103
BEATRICE       MOSUNNY   92  70  47 SW5       29.84R HX  98
FALLS CITY     SUNNY     89  74  60 SW9       29.82F HX  98
NEBRASKA CITY  SUNNY     87  71  58 SW10      29.81F HX  93
PLATTSMOUTH    SUNNY    N/A N/A N/A SW7       29.79S
$$

NEZ044-045-051>053-067-030000-
OMAHA AREA

CITY           SKY/WX    TMP DP  RH WIND       PRES   REMARKS
OMAHA EPPLEY   MOSUNNY   91  76  61 N14       29.78S HX 103
BLAIR          MOSUNNY   88  73  61 NW7       29.81S HX  96
FREMONT        MOSUNNY   90  72  55 N5        29.82S HX  97
MILLARD        SUNNY     94  75  54 W8        29.79S HX 105
PLATTSMOUTH    SUNNY    N/A N/A N/A SW7       29.79S
WAHOO          FAIR      90  74  59 NW7       29.81S HX  99
$$


USA.gov is the U.S. government's official web portal to all federal, state and local government web resources and services.